Sigfox identifier Datetime Temperature Humidity SNR
002EEB70 2019-04-23 14:53:05 21.8 29 17.5
002EEB70 2019-04-23 14:21:42 21.7 29 17.4
002EEB70 2019-04-23 13:50:19 21.6 29 17.5
002EEB70 2019-04-23 13:18:55 21.6 29 17.2
002EEB70 2019-04-23 12:47:32 21.6 29 16.8
002EEB70 2019-04-23 12:16:10 21.6 29 16.3
002EEB70 2019-04-23 11:44:47 21.6 29 16.4
002EEB70 2019-04-23 11:13:25 21.6 28 16.5
002EEB70 2019-04-23 10:42:03 21.4 28 16.6
002EEB70 2019-04-23 10:10:39 21.4 28 16.8
002EEB70 2019-04-23 09:39:18 21.4 28 16.9
002EEB70 2019-04-23 09:07:55 21.4 28 16.5
002EEB70 2019-04-23 08:36:30 21.3 28 16.5
002EEB70 2019-04-23 08:05:06 21.2 28 16.4
002EEB70 2019-04-23 07:33:44 21.3 28 16.3
002EEB70 2019-04-23 07:02:20 21.2 28 15.9
002EEB70 2019-04-23 06:30:57 21.2 28 15.7
002EEB70 2019-04-23 05:59:34 21.2 28 15.9
002EEB70 2019-04-23 05:28:12 21.3 28 16.1
002EEB70 2019-04-23 04:56:48 21.3 28 16.2
002EEB70 2019-04-23 04:25:24 21.3 28 15.8
002EEB70 2019-04-23 03:54:01 21.3 28 15.5
002EEB70 2019-04-23 03:22:38 21.3 28 15.5
002EEB70 2019-04-23 02:51:14 21.3 28 18.6
002EEB70 2019-04-23 02:19:50 21.3 28 18.6
002EEB70 2019-04-23 01:48:27 21.3 28 18.5
002EEB70 2019-04-23 01:17:05 21.4 28 18.5
002EEB70 2019-04-23 00:45:41 21.2 28 18.7
002EEB70 2019-04-23 00:14:18 21.2 28 18.6
002EEB70 2019-04-22 23:42:54 21.3 28 18.8
002EEB70 2019-04-22 23:11:31 21.2 28 18.8
002EEB70 2019-04-22 22:40:07 21.3 28 18.8
002EEB70 2019-04-22 22:08:43 21.3 28 18.7
002EEB70 2019-04-22 21:37:21 21.2 28 18.8
002EEB70 2019-04-22 21:05:56 21.2 28 18.7
002EEB70 2019-04-22 20:34:33 21.2 28 18.7
002EEB70 2019-04-22 20:03:10 21.2 28 18.6
002EEB70 2019-04-22 19:31:47 21.2 28 18.6
002EEB70 2019-04-22 19:00:24 21.2 28 18.6
002EEB70 2019-04-22 18:28:59 21.2 28 19
002EEB70 2019-04-22 17:57:35 21.2 28 19.1
002EEB70 2019-04-22 17:26:12 21.2 28 19.2
002EEB70 2019-04-22 16:54:48 21.2 28 19.1
002EEB70 2019-04-22 16:23:25 21.2 28 19.1
002EEB70 2019-04-22 15:52:03 21.2 28 19.1
002EEB70 2019-04-22 15:20:38 21.2 28 19.1
002EEB70 2019-04-22 14:49:12 21.2 27 19.1
002EEB70 2019-04-22 14:17:49 21.2 27 19.2
002EEB70 2019-04-22 13:46:25 21.3 27 16.4
002EEB70 2019-04-22 13:15:02 21.2 27 16.3
002EEB70 2019-04-22 12:43:39 21.3 27 16.3
002EEB70 2019-04-22 12:12:17 21.4 27 16.4
002EEB70 2019-04-22 11:40:53 21.4 27 16
002EEB70 2019-04-22 11:09:30 21.4 27 15.9
002EEB70 2019-04-22 10:38:09 21.4 27 15.6
002EEB70 2019-04-22 10:06:43 21.4 27 15.3
002EEB70 2019-04-22 09:35:20 21.4 27 15.2
002EEB70 2019-04-22 09:03:55 21.4 27 15.5
002EEB70 2019-04-22 08:32:32 21.4 26 15.4
002EEB70 2019-04-22 08:01:08 21.4 26 15.3
002EEB70 2019-04-22 07:29:44 21.4 26 15.2
002EEB70 2019-04-22 06:58:20 21.4 26 15.3
002EEB70 2019-04-22 06:26:57 21.4 26 15.2
002EEB70 2019-04-22 05:55:34 21.4 26 15.1
002EEB70 2019-04-22 05:24:09 21.4 26 14.2
002EEB70 2019-04-22 04:52:45 21.4 26 13.8
002EEB70 2019-04-22 04:21:26 21.4 26 13.6
002EEB70 2019-04-22 03:49:58 21.4 26 13.5
002EEB70 2019-04-22 03:18:34 21.4 26 13.1
002EEB70 2019-04-22 02:47:11 21.4 26 13.2
002EEB70 2019-04-22 02:15:50 21.4 26 13.4
002EEB70 2019-04-22 01:44:25 21.4 27 13.1
002EEB70 2019-04-22 01:13:01 21.4 27 13
002EEB70 2019-04-22 00:41:37 21.4 27 13
002EEB70 2019-04-22 00:10:12 21.5 27 13.4
002EEB70 2019-04-21 23:38:48 21.5 27 14.2
002EEB70 2019-04-21 23:07:24 21.6 27 14.1
002EEB70 2019-04-21 22:36:00 21.5 27 14.2
002EEB70 2019-04-21 22:04:37 21.5 27 14.2
002EEB70 2019-04-21 21:33:13 21.6 27 15.1
002EEB70 2019-04-21 21:01:53 21.5 27 15
002EEB70 2019-04-21 20:30:28 21.6 27 14.6
002EEB70 2019-04-21 19:59:07 21.5 27 14.6
002EEB70 2019-04-21 19:27:44 21.5 27 18.4
002EEB70 2019-04-21 18:56:21 21.4 27 18.5
002EEB70 2019-04-21 18:25:01 21.4 27 18.5
002EEB70 2019-04-21 17:53:36 21.4 27 18.5
002EEB70 2019-04-21 17:22:13 21.4 26 18.5
002EEB70 2019-04-21 16:50:50 21.4 26 18.6
002EEB70 2019-04-21 16:19:31 21.4 26 18.6
002EEB70 2019-04-21 15:48:07 21.4 26 18.6
002EEB70 2019-04-21 15:16:45 21.4 26 18.7
002EEB70 2019-04-21 14:45:24 21.3 26 18.7
002EEB70 2019-04-21 14:13:59 21.2 26 18.6
002EEB70 2019-04-21 13:42:35 21.2 26 18.5
002EEB70 2019-04-21 13:11:13 21.2 26 18.5
002EEB70 2019-04-21 12:39:51 21.2 26 18.5
002EEB70 2019-04-21 12:08:29 21.2 26 18.5
002EEB70 2019-04-21 11:37:06 21.2 26 18.4
002EEB70 2019-04-21 11:05:43 21.2 26 18.3
002EEB70 2019-04-21 10:34:20 21.2 26 18.2
002EEB70 2019-04-21 10:02:57 21.2 26 18.2
002EEB70 2019-04-21 09:31:33 21.2 26 18.2
002EEB70 2019-04-21 09:00:10 21.2 26 18
002EEB70 2019-04-21 08:28:47 21.2 26 18.1
002EEB70 2019-04-21 07:57:26 21.2 26 18.1
002EEB70 2019-04-21 07:26:01 21.2 26 18.1
002EEB70 2019-04-21 06:54:36 21.2 26 18.1
002EEB70 2019-04-21 06:23:14 21.3 26 14.3
002EEB70 2019-04-21 05:51:51 21.4 26 14.2
002EEB70 2019-04-21 05:20:28 21.4 26 14.2
002EEB70 2019-04-21 04:49:04 21.3 26 14.2
002EEB70 2019-04-21 04:17:40 21.4 26 14.2
002EEB70 2019-04-21 03:46:16 21.4 26 14.7
002EEB70 2019-04-21 03:14:53 21.4 26 15.3
002EEB70 2019-04-21 02:43:30 21.4 26 15.3
002EEB70 2019-04-21 02:12:07 21.4 26 15
002EEB70 2019-04-21 01:40:47 21.4 26 15.5
002EEB70 2019-04-21 01:09:24 21.4 26 15.6
002EEB70 2019-04-21 00:38:00 21.4 26 15.9
002EEB70 2019-04-21 00:06:37 21.4 26 16.5
002EEB70 2019-04-20 23:35:12 21.4 25 17
002EEB70 2019-04-20 23:03:49 21.4 25 17.6
002EEB70 2019-04-20 22:32:27 21.4 25 17.7
002EEB70 2019-04-20 22:01:03 21.4 25 18
002EEB70 2019-04-20 21:29:41 21.4 25 18.4
002EEB70 2019-04-20 20:58:19 21.4 25 18.7
002EEB70 2019-04-20 20:26:57 21.4 25 18.9
002EEB70 2019-04-20 19:55:36 21.4 25 18.8
002EEB70 2019-04-20 19:24:14 21.4 25 19
002EEB70 2019-04-20 18:52:52 21.4 25 19
002EEB70 2019-04-20 18:21:30 21.4 25 19
002EEB70 2019-04-20 17:50:07 21.4 25 19.3
002EEB70 2019-04-20 17:18:45 21.4 25 19.3
002EEB70 2019-04-20 16:47:22 21.4 25 19.1
002EEB70 2019-04-20 16:16:00 21.4 25 19.3
002EEB70 2019-04-20 15:44:38 21.4 25 19.6
002EEB70 2019-04-20 15:13:16 21.4 25 19.6
002EEB70 2019-04-20 14:41:54 21.4 25 19.4
002EEB70 2019-04-20 14:10:31 21.3 25 19.2
002EEB70 2019-04-20 13:39:09 21.2 24 19.2
002EEB70 2019-04-20 13:07:46 21.2 24 19.4
002EEB70 2019-04-20 12:36:24 21.2 24 19.2
002EEB70 2019-04-20 12:05:00 21.2 24 19.3
002EEB70 2019-04-20 11:33:38 21.2 24 19.4
002EEB70 2019-04-20 11:02:16 21.2 24 19.2
002EEB70 2019-04-20 10:30:53 21.2 24 19.2
002EEB70 2019-04-20 09:59:29 21.2 24 19.3
002EEB70 2019-04-20 09:28:06 21.2 24 19.2
002EEB70 2019-04-20 08:56:43 21.2 24 18.9
002EEB70 2019-04-20 08:25:21 21.2 24 18.7
002EEB70 2019-04-20 07:53:58 21.2 24 18.5
002EEB70 2019-04-20 07:22:36 21.2 24 18.3
002EEB70 2019-04-20 06:51:12 21.2 24 18.3
002EEB70 2019-04-20 06:19:50 21.2 24 18.1
002EEB70 2019-04-20 05:48:28 21.2 24 18.1
002EEB70 2019-04-20 05:17:06 21.2 24 18.1
002EEB70 2019-04-20 04:45:44 21.2 24 17.9
002EEB70 2019-04-20 04:14:22 21.2 24 17.9
002EEB70 2019-04-20 03:43:00 21.2 24 17.9
002EEB70 2019-04-20 03:11:39 21.2 24 17.9
002EEB70 2019-04-20 02:40:17 21.1 24 17.4
002EEB70 2019-04-20 02:08:56 21.2 24 17.6
002EEB70 2019-04-20 01:37:33 21.1 24 17.9
002EEB70 2019-04-20 01:06:12 21.1 24 17.9
002EEB70 2019-04-20 00:34:51 21.1 24 18.3
002EEB70 2019-04-20 00:03:29 21.1 24 18.3
002EEB70 2019-04-19 23:32:03 21.1 24 18.3
002EEB70 2019-04-19 23:00:39 21.1 24 18.4
002EEB70 2019-04-19 22:29:16 21.1 24 18.1
002EEB70 2019-04-19 21:57:52 21.1 24 18.3
002EEB70 2019-04-19 21:26:28 21.2 24 18.1
002EEB70 2019-04-19 20:55:08 21.1 24 17.4
002EEB70 2019-04-19 20:23:42 21.1 24 17.8
002EEB70 2019-04-19 19:52:19 21 24 17.8
002EEB70 2019-04-19 19:20:54 21 24 17.7
002EEB70 2019-04-19 18:49:31 21 24 17.7
002EEB70 2019-04-19 18:18:08 21 24 17.7
002EEB70 2019-04-19 17:46:48 21 24 17.9
002EEB70 2019-04-19 17:15:24 21 24 17.8
002EEB70 2019-04-19 16:44:00 21 24 17.8
002EEB70 2019-04-19 16:12:38 21 24 17.8
002EEB70 2019-04-19 15:41:16 21 24 18
002EEB70 2019-04-19 15:09:54 21 24 18
002EEB70 2019-04-19 14:38:31 21.1 24 18
002EEB70 2019-04-19 14:07:07 21.1 25 18
002EEB70 2019-04-19 13:35:44 21.1 25 18.1
002EEB70 2019-04-19 13:04:21 21.2 25 18.1
002EEB70 2019-04-19 12:32:58 21.2 25 18.1
002EEB70 2019-04-19 12:01:35 21.2 25 18.2
002EEB70 2019-04-19 11:30:12 21.2 25 17.8
002EEB70 2019-04-19 10:58:49 21.2 25 17.6
002EEB70 2019-04-19 10:27:27 21.2 25 17.7
002EEB70 2019-04-19 09:56:04 21.3 26 17.4
002EEB70 2019-04-19 09:24:42 21.2 26 17.3
002EEB70 2019-04-19 08:53:17 21.4 26 17.2
002EEB70 2019-04-19 08:21:53 21.4 26 17.4
002EEB70 2019-04-19 07:50:30 21.4 26 17.6
002EEB70 2019-04-19 07:19:07 21.4 26 17.2
002EEB70 2019-04-19 06:47:44 21.4 26 17.3
002EEB70 2019-04-19 06:16:22 21.4 26 17.2
002EEB70 2019-04-19 05:44:59 21.4 26 17.1
002EEB70 2019-04-19 05:13:37 21.4 26 17
002EEB70 2019-04-19 04:42:16 21.4 26 16.7
002EEB70 2019-04-19 04:10:51 21.4 26 16.9
002EEB70 2019-04-19 03:39:29 21.4 26 17
002EEB70 2019-04-19 03:08:06 21.4 26 17.1
002EEB70 2019-04-19 02:36:44 21.4 26 16.6
002EEB70 2019-04-19 02:05:26 21.4 26 19.4
002EEB70 2019-04-19 01:34:00 21.4 26 21
002EEB70 2019-04-19 01:02:37 21.4 26 21.1
002EEB70 2019-04-19 00:31:15 21.4 26 22.2
002EEB70 2019-04-18 23:59:52 21.4 26 22.3
002EEB70 2019-04-18 23:28:29 21.4 26 22.7
002EEB70 2019-04-18 22:57:07 21.4 26 22.8
002EEB70 2019-04-18 22:25:44 21.4 26 23
002EEB70 2019-04-18 21:54:22 21.4 26 23.1
002EEB70 2019-04-18 21:23:00 21.4 26 23.2
002EEB70 2019-04-18 20:51:38 21.4 26 23.5
002EEB70 2019-04-18 20:20:16 21.4 26 23.6
002EEB70 2019-04-18 19:48:54 21.4 26 23.7
002EEB70 2019-04-18 19:17:31 21.6 26 24
002EEB70 2019-04-18 18:46:08 21.6 26 24.1
002EEB70 2019-04-18 18:14:45 21.6 26 24.2
002EEB70 2019-04-18 17:43:22 21.6 26 24.4
002EEB70 2019-04-18 17:12:00 21.6 26 24.6
002EEB70 2019-04-18 16:40:37 21.6 26 24.6
002EEB70 2019-04-18 16:09:14 21.7 26 24.8
002EEB70 2019-04-18 15:37:52 21.8 26 25.3
002EEB70 2019-04-18 15:06:28 21.8 26 25.4
002EEB70 2019-04-18 14:35:06 21.8 27 25.5
002EEB70 2019-04-18 14:03:42 22 27 25.7
002EEB70 2019-04-18 13:32:19 22 27 25.8
002EEB70 2019-04-18 13:00:56 22.2 27 25.8
002EEB70 2019-04-18 12:29:33 22.5 26 25.4
002EEB70 2019-04-18 11:58:09 22.7 21 25.4
002EEB70 2019-04-18 11:26:48 22.5 21 25.1
002EEB70 2019-04-18 10:55:25 22.5 22 25.2
002EEB70 2019-04-18 10:24:03 22.4 23 25.1
002EEB70 2019-04-18 09:52:41 22.2 23 25.2
002EEB70 2019-04-18 09:21:18 22.3 22 25.1
002EEB70 2019-04-18 08:49:55 22.3 22 25.3
002EEB70 2019-04-18 08:18:33 22.3 22 25.3
002EEB70 2019-04-18 07:47:10 22.3 21 25.4
002EEB70 2019-04-18 07:15:47 22.4 22 25.8
002EEB70 2019-04-18 06:44:24 22.3 22 25.8
002EEB70 2019-04-18 06:13:02 22.2 22 25.8
002EEB70 2019-04-18 05:41:40 22.2 22 25.8
002EEB70 2019-04-18 05:10:17 22.3 22 25.7
002EEB70 2019-04-18 04:38:55 22.5 22 25.8
002EEB70 2019-04-18 04:07:33 22.5 23 25.7
002EEB70 2019-04-18 03:36:11 22.5 23 25.8
002EEB70 2019-04-18 03:04:47 22.5 23 25.9
002EEB70 2019-04-18 02:33:26 22.5 23 25.6
002EEB70 2019-04-18 02:02:04 22.5 23 25.5
002EEB70 2019-04-18 01:30:42 22.5 23 25.6
002EEB70 2019-04-18 00:59:20 22.5 23 25.6
002EEB70 2019-04-18 00:27:57 22.6 23 25.6
002EEB70 2019-04-17 23:56:35 22.6 23 25.2
002EEB70 2019-04-17 23:25:12 22.7 23 25.2
002EEB70 2019-04-17 22:53:51 22.7 23 25.2
002EEB70 2019-04-17 22:22:28 22.7 23 25.5
002EEB70 2019-04-17 21:51:06 22.7 23 25.4
002EEB70 2019-04-17 21:19:44 22.9 23 25.3
002EEB70 2019-04-17 20:48:22 22.9 23 25.4
002EEB70 2019-04-17 20:16:58 22.9 23 25.4
002EEB70 2019-04-17 19:45:37 23.1 23 25.3
002EEB70 2019-04-17 19:14:15 23.1 23 25.3
002EEB70 2019-04-17 18:42:53 23 22 25.5
002EEB70 2019-04-17 18:11:31 23.1 22 25.1
002EEB70 2019-04-17 17:40:09 23.1 22 25.1
002EEB70 2019-04-17 17:08:47 23.1 22 25.1
002EEB70 2019-04-17 16:37:25 23.2 22 25.1
002EEB70 2019-04-17 16:06:03 23.2 22 25.2
002EEB70 2019-04-17 15:34:41 23.2 23 25
002EEB70 2019-04-17 15:03:19 23.1 23 25.1
002EEB70 2019-04-17 14:31:58 23.1 23 25.1
002EEB70 2019-04-17 14:00:36 23.1 23 25
002EEB70 2019-04-17 13:29:13 22.9 23 24.9
002EEB70 2019-04-17 12:57:51 22.9 23 24.9
002EEB70 2019-04-17 12:26:28 22.7 23 25
002EEB70 2019-04-17 11:55:05 22.6 22 25
002EEB70 2019-04-17 11:23:43 22.5 23 24.9
002EEB70 2019-04-17 10:52:19 22.5 22 24.9
002EEB70 2019-04-17 10:20:57 22.3 22 25
002EEB70 2019-04-17 09:49:34 22.3 22 24.9
002EEB70 2019-04-17 09:18:12 22.3 22 24.4
002EEB70 2019-04-17 08:46:49 22.2 22 24.6
002EEB70 2019-04-17 08:15:27 22.2 21 24.7
002EEB70 2019-04-17 07:44:05 22.3 20 24.7
002EEB70 2019-04-17 07:12:43 22.2 20 24.8
002EEB70 2019-04-17 06:41:20 22.2 20 24.9
002EEB70 2019-04-17 06:09:57 22.2 20 25
002EEB70 2019-04-17 05:38:33 22.2 20 24.7
002EEB70 2019-04-17 05:07:11 22.2 20 24.7
002EEB70 2019-04-17 04:35:47 22.2 20 24.8
002EEB70 2019-04-17 04:04:24 22.2 20 24.7
002EEB70 2019-04-17 03:33:01 22.3 20 24.7
002EEB70 2019-04-17 03:01:39 22.3 20 24.6
002EEB70 2019-04-17 02:30:17 22.3 20 24.7
002EEB70 2019-04-17 01:58:54 22.4 20 24.6
002EEB70 2019-04-17 01:27:31 22.4 20 24.6
002EEB70 2019-04-17 00:56:08 22.4 20 24.6
002EEB70 2019-04-17 00:24:45 22.5 20 24.6
002EEB70 2019-04-16 23:53:22 22.5 20 24.6
002EEB70 2019-04-16 23:21:58 22.5 20 24.6
002EEB70 2019-04-16 22:50:35 22.5 20 24.6
002EEB70 2019-04-16 22:19:13 22.5 20 24.7
002EEB70 2019-04-16 21:47:50 22.6 20 24.7
002EEB70 2019-04-16 21:16:27 22.7 20 24.5
002EEB70 2019-04-16 20:45:04 22.7 20 24.7
002EEB70 2019-04-16 20:13:40 22.7 20 24.8
002EEB70 2019-04-16 19:42:17 22.7 20 24.8
002EEB70 2019-04-16 19:10:55 22.7 20 24.7
002EEB70 2019-04-16 18:39:32 22.7 19 24.7
002EEB70 2019-04-16 18:08:10 22.7 19 24.6
002EEB70 2019-04-16 17:36:47 22.9 19 24.6
002EEB70 2019-04-16 17:05:26 22.9 19 24.7
002EEB70 2019-04-16 16:34:03 22.9 19 24.5
002EEB70 2019-04-16 16:02:41 23.1 19 24.5
002EEB70 2019-04-16 15:31:19 23.1 19 24.4
002EEB70 2019-04-16 14:59:57 22.9 20 24.5
002EEB70 2019-04-16 14:28:34 22.9 19 24.4
002EEB70 2019-04-16 13:57:12 22.8 19 24.4
002EEB70 2019-04-16 13:25:48 22.7 19 24.5
002EEB70 2019-04-16 12:54:26 22.7 19 24.7
002EEB70 2019-04-16 12:23:03 22.6 18 24.7
002EEB70 2019-04-16 11:51:40 22.5 18 24.8
002EEB70 2019-04-16 11:20:17 22.5 18 24.8
002EEB70 2019-04-16 10:48:53 22.3 19 24.8
002EEB70 2019-04-16 10:17:29 22.2 19 24.8
002EEB70 2019-04-16 09:46:05 22.2 19 24.7
002EEB70 2019-04-16 09:14:42 22.2 18 24.6
002EEB70 2019-04-16 08:43:18 22.2 18 24.5
002EEB70 2019-04-16 08:11:55 22.2 18 24.6
002EEB70 2019-04-16 07:40:32 22.2 18 24.9
002EEB70 2019-04-16 07:09:09 22.2 18 24.8
002EEB70 2019-04-16 06:37:46 22.2 18 24.8
002EEB70 2019-04-16 06:06:23 22.2 18 24.8
002EEB70 2019-04-16 05:35:00 22.2 18 24.8
002EEB70 2019-04-16 05:03:36 22.2 18 24.9
002EEB70 2019-04-16 04:32:13 22.2 18 24.8
002EEB70 2019-04-16 04:00:50 22.2 18 24.8
002EEB70 2019-04-16 03:29:28 22.2 18 24.8
002EEB70 2019-04-16 02:58:06 22.2 18 24.8
002EEB70 2019-04-16 02:26:43 22.2 18 24.9
002EEB70 2019-04-16 01:55:19 22.2 18 24.8
002EEB70 2019-04-16 01:23:57 22.3 17 24.9
002EEB70 2019-04-16 00:52:34 22.2 17 24.9
002EEB70 2019-04-16 00:21:11 22.3 17 25.2
002EEB70 2019-04-15 23:49:49 22.3 17 25.1
002EEB70 2019-04-15 23:18:26 22.4 17 25
002EEB70 2019-04-15 22:47:04 22.5 17 25.1
002EEB70 2019-04-15 22:15:40 22.5 17 25.1
002EEB70 2019-04-15 21:44:16 22.5 17 25.2
002EEB70 2019-04-15 21:12:52 22.5 17 25.2
002EEB70 2019-04-15 20:41:29 22.6 17 25.2
002EEB70 2019-04-15 20:10:07 22.7 17 25.3
002EEB70 2019-04-15 19:38:45 22.7 16 25.4
002EEB70 2019-04-15 19:07:22 22.7 16 25.4
002EEB70 2019-04-15 18:36:00 22.7 15 25
002EEB70 2019-04-15 18:04:36 22.8 15 24.9
002EEB70 2019-04-15 17:33:15 22.9 15 25
002EEB70 2019-04-15 17:01:51 22.9 15 25.1
002EEB70 2019-04-15 16:30:29 22.9 15 25.1
002EEB70 2019-04-15 15:59:05 22.9 16 25.1
002EEB70 2019-04-15 15:27:41 22.9 16 25
002EEB70 2019-04-15 14:56:17 22.9 16 25.4
002EEB70 2019-04-15 14:24:55 22.9 16 25.3
002EEB70 2019-04-15 13:53:31 22.9 16 25.7
002EEB70 2019-04-15 13:22:08 22.8 16 26
002EEB70 2019-04-15 12:50:44 22.7 17 26
002EEB70 2019-04-15 12:19:21 22.6 16 26
002EEB70 2019-04-15 11:47:57 22.5 16 25.9
002EEB70 2019-04-15 11:16:33 22.5 16 25.7
002EEB70 2019-04-15 10:45:11 22.5 16 25.7
002EEB70 2019-04-15 10:13:47 22.4 17 25.7
002EEB70 2019-04-15 09:42:23 22.3 17 25.7
002EEB70 2019-04-15 09:11:00 22.2 17 25.6
002EEB70 2019-04-15 08:39:36 22.2 17 25.6
002EEB70 2019-04-15 08:08:11 22 17 25.6
002EEB70 2019-04-15 07:36:46 22 17 25.6
002EEB70 2019-04-15 07:05:22 22 17 25.5
002EEB70 2019-04-15 06:33:59 22 17 25.6
002EEB70 2019-04-15 06:02:36 21.9 17 25.6
002EEB70 2019-04-15 05:31:13 21.9 17 25.7
002EEB70 2019-04-15 04:59:50 21.9 18 25.7
002EEB70 2019-04-15 04:28:26 22 18 25.7
002EEB70 2019-04-15 03:57:03 22 18 25.6
002EEB70 2019-04-15 03:25:40 22 18 25.6
002EEB70 2019-04-15 02:54:15 22 18 25.6
002EEB70 2019-04-15 02:22:52 22 18 25.6
002EEB70 2019-04-15 01:51:28 22 18 25.3
002EEB70 2019-04-15 01:20:04 22 18 25.3
002EEB70 2019-04-15 00:48:39 22 18 24.9
002EEB70 2019-04-15 00:17:16 22 18 24.6
002EEB70 2019-04-14 23:45:51 21.9 18 24.7
002EEB70 2019-04-14 23:14:28 22 18 24.7
002EEB70 2019-04-14 22:43:03 22 18 24.7
002EEB70 2019-04-14 22:11:40 22 18 24.7
002EEB70 2019-04-14 21:40:16 22 19 24.7
002EEB70 2019-04-14 21:08:53 22.2 18 24.7
002EEB70 2019-04-14 20:37:29 22.2 18 24.7
002EEB70 2019-04-14 20:06:06 22.2 18 24.8
002EEB70 2019-04-14 19:34:42 22.2 18 24.7
002EEB70 2019-04-14 19:03:17 22.2 18 24.7
002EEB70 2019-04-14 18:31:53 22.2 18 24.7
002EEB70 2019-04-14 18:00:29 22.2 18 24.7
002EEB70 2019-04-14 17:29:05 22.1 18 24.8
002EEB70 2019-04-14 16:57:40 22.1 18 24.7
002EEB70 2019-04-14 16:26:16 22 18 25.1
002EEB70 2019-04-14 15:54:51 22 18 25.3
002EEB70 2019-04-14 15:23:26 22 18 25.3
002EEB70 2019-04-14 14:52:01 22 18 25.2
002EEB70 2019-04-14 14:20:36 22 18 25.2
002EEB70 2019-04-14 13:49:12 22 18 25.3
002EEB70 2019-04-14 13:17:48 22 19 25.3
002EEB70 2019-04-14 12:46:23 22 19 25.3
002EEB70 2019-04-14 12:14:58 22.1 19 25.4
002EEB70 2019-04-14 11:43:34 22 19 25.4
002EEB70 2019-04-14 11:12:08 22 19 25.4
002EEB70 2019-04-14 10:40:43 22 19 25.2
002EEB70 2019-04-14 10:09:19 22 19 25.2
002EEB70 2019-04-14 09:37:55 22 19 25.2
002EEB70 2019-04-14 09:06:30 22 19 25.2
002EEB70 2019-04-14 08:35:06 22 18 25.2
002EEB70 2019-04-14 08:03:43 22 18 25.2
002EEB70 2019-04-14 07:32:18 22 18 25.2
002EEB70 2019-04-14 07:00:54 22 18 25.5
002EEB70 2019-04-14 06:29:32 22 18 25.6
002EEB70 2019-04-14 05:58:06 22 18 25.6
002EEB70 2019-04-14 05:26:42 22 18 25.6
002EEB70 2019-04-14 04:55:18 22 18 25.5
002EEB70 2019-04-14 04:23:55 22 18 25.5
002EEB70 2019-04-14 03:52:32 22 18 25.5
002EEB70 2019-04-14 03:21:08 22 18 25.2
002EEB70 2019-04-14 02:49:43 22 18 25
002EEB70 2019-04-14 02:18:18 22 18 25.1
002EEB70 2019-04-14 01:46:54 22 18 25.2
002EEB70 2019-04-14 01:15:30 22 18 25.2
002EEB70 2019-04-14 00:44:06 22.1 18 25.1
002EEB70 2019-04-14 00:12:42 22.2 18 25.1
002EEB70 2019-04-13 23:41:17 22.2 18 25
002EEB70 2019-04-13 23:09:53 22.2 18 25
002EEB70 2019-04-13 22:38:27 22.2 18 24.9
002EEB70 2019-04-13 22:07:03 22.2 18 25
002EEB70 2019-04-13 21:35:39 22.2 18 25.1
002EEB70 2019-04-13 21:04:14 22.2 18 25.2
002EEB70 2019-04-13 20:32:50 22.2 18 25.2
002EEB70 2019-04-13 20:01:25 22.2 18 25.2
002EEB70 2019-04-13 19:30:00 22.2 18 25.2
002EEB70 2019-04-13 18:58:35 22.2 18 25.6
002EEB70 2019-04-13 18:27:10 22.3 18 25.6
002EEB70 2019-04-13 17:55:45 22.3 18 25.2
002EEB70 2019-04-13 17:24:20 22.3 18 25.1
002EEB70 2019-04-13 16:52:57 22.4 18 25.1
002EEB70 2019-04-13 16:21:31 22.5 18 25.2
002EEB70 2019-04-13 15:50:07 22.5 18 25.1
002EEB70 2019-04-13 15:18:42 22.5 18 25.5
002EEB70 2019-04-13 14:47:16 22.5 18 25.5
002EEB70 2019-04-13 14:15:51 22.5 18 25.5
002EEB70 2019-04-13 13:44:27 22.5 18 25.5
002EEB70 2019-04-13 13:13:02 22.5 18 25.6
002EEB70 2019-04-13 12:41:38 22.5 18 25.6
002EEB70 2019-04-13 12:10:13 22.5 18 25.5
002EEB70 2019-04-13 11:38:48 22.5 18 25.8
002EEB70 2019-04-13 11:07:24 22.5 18 25.8
002EEB70 2019-04-13 10:35:59 22.5 18 25.9
002EEB70 2019-04-13 10:04:34 22.5 18 26.1
002EEB70 2019-04-13 09:33:09 22.5 18 26.1
002EEB70 2019-04-13 09:01:43 22.5 18 26.1
002EEB70 2019-04-13 08:30:19 22.5 18 26
002EEB70 2019-04-13 07:58:55 22.5 18 26
002EEB70 2019-04-13 07:27:30 22.4 18 26
002EEB70 2019-04-13 06:56:06 22.5 17 26.1
002EEB70 2019-04-13 06:24:40 22.5 18 26.1
002EEB70 2019-04-13 05:53:16 22.5 17 25.7
002EEB70 2019-04-13 05:21:50 22.5 18 25.7
002EEB70 2019-04-13 04:50:25 22.5 18 25.8
002EEB70 2019-04-13 04:18:59 22.5 17 25.8
002EEB70 2019-04-13 03:47:34 22.5 17 25.7
002EEB70 2019-04-13 03:16:09 22.5 18 26
002EEB70 2019-04-13 02:44:43 22.6 18 26.4
002EEB70 2019-04-13 02:13:18 22.6 18 26.1
002EEB70 2019-04-13 01:41:52 22.7 18 26
002EEB70 2019-04-13 01:10:27 22.7 18 26
002EEB70 2019-04-13 00:39:00 22.7 18 26
002EEB70 2019-04-13 00:07:34 22.7 18 26
002EEB70 2019-04-12 23:36:09 22.7 18 26
002EEB70 2019-04-12 23:04:43 22.7 18 26.2
002EEB70 2019-04-12 22:33:17 22.8 18 25.8
002EEB70 2019-04-12 22:01:50 22.9 19 25.9
002EEB70 2019-04-12 21:30:24 22.9 19 26
002EEB70 2019-04-12 20:58:59 22.9 19 25.5
002EEB70 2019-04-12 20:27:33 22.9 19 25.6
002EEB70 2019-04-12 19:56:09 22.9 18 25.7
002EEB70 2019-04-12 19:24:42 22.9 18 25.9
002EEB70 2019-04-12 18:53:16 22.9 18 25.9
002EEB70 2019-04-12 18:21:51 23.1 16 25.9
002EEB70 2019-04-12 17:50:25 23.1 16 25.8
002EEB70 2019-04-12 17:18:59 23.3 17 26
002EEB70 2019-04-12 16:47:33 23.3 17 26.2
002EEB70 2019-04-12 16:16:08 23.3 17 26.4
002EEB70 2019-04-12 15:44:44 23.3 17 26.6
002EEB70 2019-04-12 15:13:19 23.3 18 27
002EEB70 2019-04-12 14:41:55 23.1 18 27.7
002EEB70 2019-04-12 14:10:31 22.9 18 26.5
002EEB70 2019-04-12 13:39:06 22.4 19 22.3
002EEB70 2019-04-12 13:07:41 21.2 22 6